| time (UTC) | temp F | wind direction | speed MPH | gust MPH | rain 1hr in | rain 24hr in | rain mn in | humidity % | barometer mb |
| 20260904104037 | 74 | 22 | 0.0 | 1.0 | 0.00 | 0.00 | 0.00 | 81 | 1014.8 |
| 20260904103533 | 74 | 39 | 1.0 | 1.0 | 0.00 | 0.00 | 0.00 | 81 | 1015.0 |
| 20260904103029 | 74 | 5 | 1.0 | 2.0 | 0.00 | 0.00 | 0.00 | 81 | 1014.7 |
| 20260904102524 | 74 | 124 | 0.0 | 2.0 | 0.00 | 0.00 | 0.00 | 81 | 1014.9 |
| 20260904102019 | 74 | 329 | 0.0 | 2.0 | 0.00 | 0.00 | 0.00 | 80 | 1014.7 |
| 20260904101516 | 75 | 299 | 0.0 | 1.0 | 0.00 | 0.00 | 0.00 | 80 | 1014.8 |
| 20260904101011 | 75 | 283 | 0.0 | 1.0 | 0.00 | 0.00 | 0.00 | 80 | 1015.0 |
| 20260904100507 | 75 | 268 | 1.0 | 2.0 | 0.00 | 0.00 | 0.00 | 80 | 1015.0 |
| 20260904100008 | 75 | 294 | 1.0 | 2.0 | 0.00 | 0.00 | 0.00 | 79 | 1014.8 |
| 20260904095502 | 75 | 345 | 1.0 | 2.0 | 0.00 | 0.00 | 0.00 | 79 | 1014.7 |
| 20260904094957 | 75 | 297 | 0.0 | 2.0 | 0.00 | 0.00 | 0.00 | 79 | 1014.6 |
| 20260904094452 | 75 | 350 | 0.0 | 1.0 | 0.00 | 0.00 | 0.00 | 78 | 1014.7 |
| 20260904093948 | 76 | 2 | 0.0 | 2.0 | 0.00 | 0.00 | 0.00 | 78 | 1014.7 |
| 20260904093444 | 76 | 3 | 1.0 | 2.0 | 0.00 | 0.00 | 0.00 | 78 | 1014.5 |
| 20260904092938 | 76 | 289 | 2.0 | 2.0 | 0.00 | 0.00 | 0.00 | 78 | 1014.3 |
| 20260904092435 | 76 | 44 | 0.0 | 2.0 | 0.00 | 0.00 | 0.00 | 77 | 1014.2 |
| 20260904091931 | 76 | 52 | 1.0 | 2.0 | 0.00 | 0.00 | 0.00 | 77 | 1014.3 |
| 20260904091427 | 76 | 286 | 0.0 | 3.0 | 0.00 | 0.00 | 0.00 | 76 | 1014.3 |
| 20260904090926 | 76 | 312 | 0.0 | 2.0 | 0.00 | 0.00 | 0.00 | 76 | 1014.2 |
| 20260904090422 | 76 | 342 | 0.0 | 2.0 | 0.00 | 0.00 | 0.00 | 76 | 1014.5 |
| 20260904085917 | 77 | 34 | 2.0 | 2.0 | 0.00 | 0.00 | 0.00 | 75 | 1014.5 |
| 20260904085413 | 77 | 27 | 0.0 | 4.0 | 0.00 | 0.00 | 0.00 | 75 | 1014.3 |
| 20260904084907 | 77 | 235 | 0.0 | 2.0 | 0.00 | 0.00 | 0.00 | 75 | 1014.5 |
| 20260904084403 | 77 | 274 | 1.0 | 2.0 | 0.00 | 0.00 | 0.00 | 75 | 1014.1 |
| 20260904083858 | 77 | 204 | 2.0 | 2.0 | 0.00 | 0.00 | 0.00 | 74 | 1014.5 |
| 20260904083355 | 77 | 232 | 2.0 | 3.0 | 0.00 | 0.00 | 0.00 | 74 | 1014.5 |
| 20260904082851 | 77 | 341 | 1.0 | 3.0 | 0.00 | 0.00 | 0.00 | 74 | 1014.3 |
| 20260904082345 | 77 | 44 | 1.0 | 2.0 | 0.00 | 0.00 | 0.00 | 74 | 1014.5 |
| 20260904081840 | 78 | 137 | 2.0 | 2.0 | 0.00 | 0.00 | 0.00 | 73 | 1014.2 |
| 20260904081336 | 78 | 1 | 0.0 | 1.0 | 0.00 | 0.00 | 0.00 | 73 | 1014.3 |
| 20260904080832 | 78 | 354 | 0.0 | 2.0 | 0.00 | 0.00 | 0.00 | 72 | 1014.5 |
| 20260904080327 | 78 | 334 | 0.0 | 2.0 | 0.00 | 0.00 | 0.00 | 72 | 1014.5 |
| 20260904075823 | 78 | 330 | 0.0 | 2.0 | 0.00 | 0.00 | 0.00 | 72 | 1014.6 |
| 20260904075324 | 78 | 18 | 2.0 | 2.0 | 0.00 | 0.00 | 0.00 | 71 | 1014.6 |
| 20260904074822 | 79 | 344 | 0.0 | 2.0 | 0.00 | 0.00 | 0.00 | 71 | 1014.7 |
| 20260904074317 | 79 | 288 | 1.0 | 3.0 | 0.00 | 0.00 | 0.00 | 71 | 1014.8 |
| 20260904073813 | 79 | 273 | 0.0 | 1.0 | 0.00 | 0.00 | 0.00 | 70 | 1014.7 |
| 20260904073308 | 79 | 0 | 0.0 | 2.0 | 0.00 | 0.00 | 0.00 | 70 | 1014.5 |
| 20260904072805 | 79 | 299 | 0.0 | 2.0 | 0.00 | 0.00 | 0.00 | 70 | 1014.5 |
| 20260904072306 | 79 | 21 | 0.0 | 3.0 | 0.00 | 0.00 | 0.00 | 70 | 1014.6 |
| 20260904071759 | 79 | 32 | 0.0 | 2.0 | 0.00 | 0.00 | 0.00 | 69 | 1014.8 |
| 20260904071254 | 79 | 327 | 0.0 | 3.0 | 0.00 | 0.00 | 0.00 | 69 | 1014.6 |
| 20260904070749 | 80 | 351 | 1.0 | 2.0 | 0.00 | 0.00 | 0.00 | 69 | 1014.5 |
| 20260904070249 | 80 | 336 | 2.0 | 2.0 | 0.00 | 0.00 | 0.00 | 69 | 1014.5 |
| 20260904065749 | 80 | 359 | 1.0 | 2.0 | 0.00 | 0.00 | 0.00 | 68 | 1014.7 |
| 20260904065245 | 80 | 150 | 0.0 | 2.0 | 0.00 | 0.00 | 0.00 | 68 | 1014.6 |
| 20260904064745 | 80 | 53 | 2.0 | 2.0 | 0.00 | 0.00 | 0.00 | 68 | 1014.5 |
| 20260904064240 | 80 | 35 | 0.0 | 3.0 | 0.00 | 0.00 | 0.00 | 68 | 1014.6 |
| 20260904063737 | 80 | 341 | 1.0 | 2.0 | 0.00 | 0.00 | 0.00 | 67 | 1014.5 |
| 20260904063232 | 81 | 74 | 1.0 | 4.0 | 0.00 | 0.00 | 0.00 | 67 | 1014.7 |
| 20260904062728 | 81 | 320 | 0.0 | 5.0 | 0.00 | 0.00 | 0.00 | 67 | 1014.5 |
| 20260904062224 | 81 | 338 | 1.0 | 5.0 | 0.00 | 0.00 | 0.00 | 67 | 1014.6 |
| 20260904061719 | 81 | 203 | 1.0 | 2.0 | 0.00 | 0.00 | 0.00 | 66 | 1014.3 |
| 20260904061215 | 81 | 202 | 2.0 | 4.0 | 0.00 | 0.00 | 0.00 | 66 | 1014.3 |
| 20260904060712 | 81 | 43 | 0.0 | 3.0 | 0.00 | 0.00 | 0.00 | 66 | 1014.8 |
| 20260904060207 | 81 | 242 | 2.0 | 4.0 | 0.00 | 0.00 | 0.00 | 65 | 1014.6 |
| 20260904055702 | 82 | 81 | 4.0 | 4.0 | 0.00 | 0.00 | 0.00 | 65 | 1014.6 |
| 20260904055157 | 82 | 237 | 0.0 | 3.0 | 0.00 | 0.00 | 0.00 | 65 | 1014.5 |
| 20260904054653 | 82 | 19 | 3.0 | 3.0 | 0.00 | 0.00 | 0.00 | 64 | 1014.5 |
| 20260904054149 | 82 | 46 | 1.0 | 3.0 | 0.00 | 0.00 | 0.00 | 64 | 1014.2 |
| 20260904053644 | 82 | 30 | 0.0 | 4.0 | 0.00 | 0.00 | 0.00 | 64 | 1014.3 |
| 20260904053144 | 82 | 335 | 0.0 | 2.0 | 0.00 | 0.00 | 0.00 | 63 | 1014.1 |
| 20260904052641 | 82 | 178 | 1.0 | 2.0 | 0.00 | 0.00 | 0.00 | 63 | 1014.1 |
| 20260904052136 | 82 | 191 | 0.0 | 4.0 | 0.00 | 0.00 | 0.00 | 63 | 1014.3 |
| 20260904051632 | 82 | 34 | 1.0 | 2.0 | 0.00 | 0.00 | 0.00 | 62 | 1014.1 |
| 20260904051127 | 82 | 251 | 1.0 | 2.0 | 0.00 | 0.00 | 0.00 | 62 | 1014.1 |
| 20260904050622 | 83 | 65 | 1.0 | 4.0 | 0.00 | 0.00 | 0.00 | 62 | 1014.1 |
| 20260904050119 | 83 | 174 | 0.0 | 3.0 | 0.00 | 0.00 | 0.00 | 61 | 1014.1 |
| 20260904045613 | 83 | 65 | 2.0 | 4.0 | 0.00 | 0.00 | 0.00 | 61 | 1014.1 |
| 20260904045108 | 83 | 315 | 0.0 | 6.0 | 0.00 | 0.00 | 0.00 | 61 | 1014.1 |
| 20260904044603 | 83 | 50 | 0.0 | 3.0 | 0.00 | 0.00 | 0.00 | 61 | 1013.8 |
| 20260904044100 | 83 | 30 | 0.0 | 6.0 | 0.00 | 0.00 | 0.00 | 61 | 1013.8 |
| 20260904043556 | 83 | 299 | 4.0 | 4.0 | 0.00 | 0.00 | 0.00 | 61 | 1014.0 |
| 20260904043051 | 83 | 236 | 0.0 | 3.0 | 0.00 | 0.00 | 0.00 | 61 | 1013.8 |
| 20260904042548 | 83 | 343 | 2.0 | 3.0 | 0.00 | 0.00 | 0.00 | 61 | 1014.0 |
| 20260904042043 | 83 | 118 | 2.0 | 4.0 | 0.00 | 0.00 | 0.00 | 61 | 1013.9 |
| 20260904041538 | 83 | 119 | 1.0 | 3.0 | 0.00 | 0.00 | 0.00 | 61 | 1014.0 |
| 20260904041034 | 84 | 30 | 0.0 | 2.0 | 0.00 | 0.00 | 0.00 | 60 | 1013.9 |
| 20260904040534 | 84 | 11 | 0.0 | 2.0 | 0.00 | 0.00 | 0.00 | 60 | 1013.8 |
| 20260904040031 | 84 | 97 | 0.0 | 2.0 | 0.00 | 0.00 | 0.00 | 60 | 1013.9 |
| 20260904035531 | 84 | 34 | 0.0 | 2.0 | 0.00 | 0.00 | 0.00 | 59 | 1013.7 |
| 20260904035031 | 84 | 347 | 1.0 | 2.0 | 0.00 | 0.00 | 0.00 | 59 | 1013.9 |
| 20260904034525 | 85 | 326 | 0.0 | 3.0 | 0.00 | 0.00 | 0.00 | 59 | 1013.8 |
| 20260904034021 | 85 | 44 | 0.0 | 3.0 | 0.00 | 0.00 | 0.00 | 59 | 1013.8 |
| 20260904033517 | 85 | 44 | 0.0 | 2.0 | 0.00 | 0.00 | 0.00 | 58 | 1013.8 |
| 20260904033014 | 85 | 99 | 0.0 | 2.0 | 0.00 | 0.00 | 0.00 | 58 | 1013.8 |
| 20260904032509 | 85 | 69 | 1.0 | 2.0 | 0.00 | 0.00 | 0.00 | 58 | 1013.6 |
| 20260904032008 | 85 | 30 | 0.0 | 2.0 | 0.00 | 0.00 | 0.00 | 57 | 1013.7 |
| 20260904031503 | 86 | 123 | 1.0 | 3.0 | 0.00 | 0.00 | 0.00 | 57 | 1013.6 |
| 20260904030959 | 86 | 358 | 0.0 | 2.0 | 0.00 | 0.00 | 0.00 | 57 | 1013.4 |
| 20260904030454 | 86 | 99 | 1.0 | 6.0 | 0.00 | 0.00 | 0.00 | 56 | 1013.7 |
| 20260904025949 | 86 | 40 | 3.0 | 3.0 | 0.00 | 0.00 | 0.00 | 56 | 1013.3 |
| 20260904025446 | 86 | 334 | 2.0 | 5.0 | 0.00 | 0.00 | 0.00 | 56 | 1013.6 |
| 20260904024945 | 87 | 61 | 3.0 | 4.0 | 0.00 | 0.00 | 0.00 | 55 | 1013.5 |
| 20260904024441 | 87 | 56 | 2.0 | 4.0 | 0.00 | 0.00 | 0.00 | 55 | 1013.3 |
| 20260904023936 | 87 | 144 | 3.0 | 4.0 | 0.00 | 0.00 | 0.00 | 54 | 1013.3 |
| 20260904023432 | 87 | 129 | 0.0 | 3.0 | 0.00 | 0.00 | 0.00 | 54 | 1013.2 |
| 20260904022932 | 87 | 33 | 2.0 | 5.0 | 0.00 | 0.00 | 0.00 | 54 | 1013.2 |
| 20260904022429 | 88 | 39 | 2.0 | 3.0 | 0.00 | 0.00 | 0.00 | 53 | 1013.2 |
| 20260904021925 | 88 | 123 | 3.0 | 3.0 | 0.00 | 0.00 | 0.00 | 53 | 1012.9 |
| 20260904021420 | 88 | 31 | 1.0 | 4.0 | 0.00 | 0.00 | 0.00 | 53 | 1013.0 |
| 20260904020915 | 88 | 51 | 2.0 | 4.0 | 0.00 | 0.00 | 0.00 | 52 | 1013.0 |
| 20260904020410 | 88 | 52 | 0.0 | 2.0 | 0.00 | 0.00 | 0.00 | 52 | 1013.0 |
| 20260904015908 | 89 | 48 | 0.0 | 3.0 | 0.00 | 0.00 | 0.00 | 51 | 1012.9 |
| 20260904015405 | 88 | 173 | 1.0 | 4.0 | 0.00 | 0.00 | 0.00 | 50 | 1012.7 |
| 20260904014903 | 89 | 349 | 2.0 | 2.0 | 0.00 | 0.00 | 0.00 | 49 | 1012.6 |
| 20260904014358 | 89 | 349 | 2.0 | 4.0 | 0.00 | 0.00 | 0.00 | 49 | 1012.4 |
| 20260904013854 | 89 | 236 | 0.0 | 2.0 | 0.00 | 0.00 | 0.00 | 48 | 1012.8 |
| 20260904013350 | 89 | 1 | 2.0 | 4.0 | 0.00 | 0.00 | 0.00 | 47 | 1012.4 |
| 20260904012846 | 90 | 122 | 0.0 | 2.0 | 0.00 | 0.00 | 0.00 | 47 | 1012.4 |
| 20260904012346 | 90 | 355 | 1.0 | 3.0 | 0.00 | 0.00 | 0.00 | 46 | 1012.4 |
| 20260904011845 | 90 | 76 | 0.0 | 4.0 | 0.00 | 0.00 | 0.00 | 45 | 1012.1 |
| 20260904011340 | 91 | 18 | 2.0 | 2.0 | 0.00 | 0.00 | 0.00 | 45 | 1012.2 |
| 20260904010835 | 91 | 76 | 2.0 | 3.0 | 0.00 | 0.00 | 0.00 | 44 | 1012.1 |
| 20260904010333 | 91 | 71 | 1.0 | 4.0 | 0.00 | 0.00 | 0.00 | 43 | 1012.0 |
| 20260904005832 | 92 | 102 | 2.0 | 3.0 | 0.00 | 0.00 | 0.00 | 43 | 1012.2 |
| 20260904005328 | 92 | 111 | 1.0 | 3.0 | 0.00 | 0.00 | 0.00 | 42 | 1011.8 |
| 20260904004823 | 92 | 96 | 0.0 | 3.0 | 0.00 | 0.00 | 0.00 | 42 | 1011.7 |
| 20260904004319 | 93 | 201 | 2.0 | 4.0 | 0.00 | 0.00 | 0.00 | 41 | 1012.0 |
| 20260904003814 | 93 | 22 | 1.0 | 4.0 | 0.00 | 0.00 | 0.00 | 41 | 1011.8 |
| 20260904003310 | 94 | 120 | 4.0 | 4.0 | 0.00 | 0.00 | 0.00 | 40 | 1011.6 |
| 20260904002805 | 94 | 34 | 2.0 | 3.0 | 0.00 | 0.00 | 0.00 | 40 | 1011.7 |
| 20260904002302 | 95 | 18 | 2.0 | 4.0 | 0.00 | 0.00 | 0.00 | 39 | 1011.8 |
| 20260904001800 | 95 | 49 | 1.0 | 4.0 | 0.00 | 0.00 | 0.00 | 38 | 1011.5 |
| 20260904001256 | 96 | 139 | 1.0 | 4.0 | 0.00 | 0.00 | 0.00 | 38 | 1011.5 |
| 20260904000751 | 96 | 327 | 1.0 | 4.0 | 0.00 | 0.00 | 0.00 | 38 | 1011.6 |
| 20260904000245 | 97 | 344 | 2.0 | 4.0 | 0.00 | 0.00 | 0.00 | 37 | 1011.7 |
| 20260903235744 | 98 | 87 | 0.0 | 4.0 | 0.00 | 0.00 | 0.00 | 36 | 1011.7 |
| 20260903235241 | 98 | 63 | 2.0 | 3.0 | 0.00 | 0.00 | 0.00 | 36 | 1011.6 |
| 20260903234740 | 99 | 63 | 2.0 | 3.0 | 0.00 | 0.00 | 0.00 | 35 | 1011.4 |
| 20260903234237 | 99 | 51 | 2.0 | 4.0 | 0.00 | 0.00 | 0.00 | 35 | 1011.3 |
| 20260903233733 | 99 | 24 | 1.0 | 3.0 | 0.00 | 0.00 | 0.00 | 35 | 1011.5 |
| 20260903233228 | 99 | 89 | 2.0 | 6.0 | 0.00 | 0.00 | 0.00 | 35 | 1011.5 |
| 20260903232727 | 100 | 96 | 1.0 | 6.0 | 0.00 | 0.00 | 0.00 | 34 | 1011.7 |
| 20260903232223 | 101 | 337 | 0.0 | 5.0 | 0.00 | 0.00 | 0.00 | 33 | 1011.6 |
| 20260903231722 | 101 | 125 | 0.0 | 4.0 | 0.00 | 0.00 | 0.00 | 33 | 1011.3 |
| 20260903231218 | 102 | 353 | 0.0 | 4.0 | 0.00 | 0.00 | 0.00 | 31 | 1011.3 |
| 20260903230714 | 102 | 27 | 2.0 | 4.0 | 0.00 | 0.00 | 0.00 | 30 | 1011.4 |
| 20260903230214 | 102 | 347 | 0.0 | 2.0 | 0.00 | 0.00 | 0.00 | 30 | 1011.5 |
| 20260903225710 | 102 | 49 | 3.0 | 3.0 | 0.00 | 0.00 | 0.00 | 29 | 1011.3 |
| 20260903225206 | 102 | 225 | 1.0 | 3.0 | 0.00 | 0.00 | 0.00 | 30 | 1011.3 |
| 20260903224702 | 101 | 32 | 0.0 | 4.0 | 0.00 | 0.00 | 0.00 | 30 | 1011.3 |
| 20260903224158 | 102 | 80 | 2.0 | 5.0 | 0.00 | 0.00 | 0.00 | 30 | 1011.3 |
| 20260903223653 | 102 | 312 | 2.0 | 6.0 | 0.00 | 0.00 | 0.00 | 30 | 1011.3 |
| 20260903223151 | 103 | 320 | 5.0 | 6.0 | 0.00 | 0.00 | 0.00 | 29 | 1011.4 |
| 20260903222651 | 103 | 290 | 0.0 | 6.0 | 0.00 | 0.00 | 0.00 | 29 | 1011.3 |
| 20260903222150 | 103 | 322 | 0.0 | 3.0 | 0.00 | 0.00 | 0.00 | 30 | 1011.4 |
| 20260903221646 | 102 | 333 | 3.0 | 5.0 | 0.00 | 0.00 | 0.00 | 30 | 1011.3 |
| 20260903221144 | 102 | 75 | 2.0 | 5.0 | 0.00 | 0.00 | 0.00 | 29 | 1011.3 |
| 20260903220643 | 102 | 60 | 2.0 | 6.0 | 0.00 | 0.00 | 0.00 | 30 | 1011.5 |
| 20260903220138 | 103 | 115 | 2.0 | 4.0 | 0.00 | 0.00 | 0.00 | 30 | 1011.2 |
| 20260903215637 | 103 | 114 | 1.0 | 3.0 | 0.00 | 0.00 | 0.00 | 30 | 1011.4 |
| 20260903215132 | 103 | 282 | 3.0 | 4.0 | 0.00 | 0.00 | 0.00 | 30 | 1011.3 |
| 20260903214630 | 102 | 15 | 1.0 | 2.0 | 0.00 | 0.00 | 0.00 | 31 | 1011.4 |
| 20260903214126 | 102 | 67 | 2.0 | 5.0 | 0.00 | 0.00 | 0.00 | 31 | 1011.7 |
| 20260903213621 | 104 | 115 | 1.0 | 4.0 | 0.00 | 0.00 | 0.00 | 30 | 1011.6 |
| 20260903213117 | 103 | 308 | 3.0 | 3.0 | 0.00 | 0.00 | 0.00 | 30 | 1011.6 |
| 20260903212612 | 103 | 2 | 2.0 | 4.0 | 0.00 | 0.00 | 0.00 | 31 | 1011.6 |
| 20260903212108 | 103 | 180 | 0.0 | 3.0 | 0.00 | 0.00 | 0.00 | 31 | 1011.7 |
| 20260903211602 | 103 | 38 | 2.0 | 5.0 | 0.00 | 0.00 | 0.00 | 31 | 1011.6 |
| 20260903211059 | 103 | 96 | 2.0 | 5.0 | 0.00 | 0.00 | 0.00 | 32 | 1011.8 |
| 20260903210554 | 102 | 173 | 2.0 | 3.0 | 0.00 | 0.00 | 0.00 | 32 | 1011.8 |
| 20260903210050 | 102 | 212 | 3.0 | 4.0 | 0.00 | 0.00 | 0.00 | 32 | 1011.7 |
| 20260903205548 | 102 | 263 | 0.0 | 3.0 | 0.00 | 0.00 | 0.00 | 33 | 1012.0 |
| 20260903205043 | 102 | 330 | 0.0 | 6.0 | 0.00 | 0.00 | 0.00 | 32 | 1011.7 |
| 20260903204539 | 102 | 121 | 2.0 | 4.0 | 0.00 | 0.00 | 0.00 | 33 | 1012.0 |
| 20260903204035 | 101 | 157 | 5.0 | 5.0 | 0.00 | 0.00 | 0.00 | 33 | 1012.0 |
| 20260903203530 | 102 | 271 | 1.0 | 3.0 | 0.00 | 0.00 | 0.00 | 33 | 1012.3 |
| 20260903203030 | 102 | 138 | 1.0 | 6.0 | 0.00 | 0.00 | 0.00 | 33 | 1012.2 |
| 20260903202526 | 101 | 2 | 2.0 | 4.0 | 0.00 | 0.00 | 0.00 | 34 | 1012.3 |
| 20260903202021 | 103 | 31 | 1.0 | 6.0 | 0.00 | 0.00 | 0.00 | 33 | 1012.3 |
| 20260903201516 | 102 | 78 | 2.0 | 6.0 | 0.00 | 0.00 | 0.00 | 34 | 1012.4 |
| 20260903201014 | 102 | 253 | 4.0 | 5.0 | 0.00 | 0.00 | 0.00 | 34 | 1012.5 |
| 20260903200510 | 102 | 201 | 2.0 | 4.0 | 0.00 | 0.00 | 0.00 | 33 | 1012.6 |
| 20260903200004 | 102 | 228 | 6.0 | 8.0 | 0.00 | 0.00 | 0.00 | 34 | 1012.7 |
| 20260903195501 | 102 | 121 | 5.0 | 5.0 | 0.00 | 0.00 | 0.00 | 34 | 1012.5 |
| 20260903194956 | 101 | 199 | 0.0 | 9.0 | 0.00 | 0.00 | 0.00 | 35 | 1012.6 |
| 20260903194451 | 101 | 3 | 1.0 | 6.0 | 0.00 | 0.00 | 0.00 | 35 | 1012.6 |
| 20260903193946 | 100 | 231 | 3.0 | 4.0 | 0.00 | 0.00 | 0.00 | 36 | 1012.6 |
| 20260903193443 | 101 | 104 | 3.0 | 7.0 | 0.00 | 0.00 | 0.00 | 35 | 1012.8 |
| 20260903192937 | 101 | 285 | 3.0 | 3.0 | 0.00 | 0.00 | 0.00 | 36 | 1012.9 |
| 20260903192434 | 100 | 175 | 2.0 | 5.0 | 0.00 | 0.00 | 0.00 | 36 | 1013.0 |
| 20260903191929 | 100 | 192 | 5.0 | 9.0 | 0.00 | 0.00 | 0.00 | 36 | 1013.0 |
| 20260903191426 | 100 | 93 | 2.0 | 4.0 | 0.00 | 0.00 | 0.00 | 35 | 1012.9 |
| 20260903190925 | 101 | 32 | 4.0 | 9.0 | 0.00 | 0.00 | 0.00 | 35 | 1013.1 |
| 20260903190419 | 100 | 181 | 1.0 | 3.0 | 0.00 | 0.00 | 0.00 | 36 | 1013.2 |
| 20260903185919 | 99 | 283 | 3.0 | 6.0 | 0.00 | 0.00 | 0.00 | 36 | 1013.2 |
| 20260903185414 | 99 | 29 | 2.0 | 8.0 | 0.00 | 0.00 | 0.00 | 37 | 1013.3 |
| 20260903184909 | 100 | 75 | 3.0 | 9.0 | 0.00 | 0.00 | 0.00 | 36 | 1013.4 |
| 20260903184407 | 99 | 37 | 0.0 | 4.0 | 0.00 | 0.00 | 0.00 | 37 | 1013.5 |
| 20260903183906 | 99 | 18 | 2.0 | 6.0 | 0.00 | 0.00 | 0.00 | 37 | 1013.3 |
| 20260903183401 | 98 | 66 | 6.0 | 7.0 | 0.00 | 0.00 | 0.00 | 38 | 1013.6 |
| 20260903182901 | 98 | 295 | 3.0 | 6.0 | 0.00 | 0.00 | 0.00 | 38 | 1013.6 |
| 20260903182359 | 98 | 237 | 7.0 | 7.0 | 0.00 | 0.00 | 0.00 | 38 | 1013.6 |
| 20260903181855 | 97 | 1 | 1.0 | 7.0 | 0.00 | 0.00 | 0.00 | 40 | 1014.0 |
| 20260903181355 | 97 | 328 | 2.0 | 5.0 | 0.00 | 0.00 | 0.00 | 38 | 1014.0 |
| 20260903180854 | 98 | 142 | 4.0 | 5.0 | 0.00 | 0.00 | 0.00 | 38 | 1014.1 |
| 20260903180349 | 97 | 98 | 3.0 | 5.0 | 0.00 | 0.00 | 0.00 | 40 | 1013.9 |
| 20260903175849 | 97 | 168 | 2.0 | 8.0 | 0.00 | 0.00 | 0.00 | 41 | 1014.0 |
| 20260903175349 | 97 | 182 | 4.0 | 7.0 | 0.00 | 0.00 | 0.00 | 40 | 1014.3 |
| 20260903174843 | 96 | 110 | 3.0 | 4.0 | 0.00 | 0.00 | 0.00 | 41 | 1014.2 |
| 20260903174339 | 95 | 164 | 5.0 | 6.0 | 0.00 | 0.00 | 0.00 | 42 | 1014.3 |
| 20260903173838 | 96 | 92 | 2.0 | 10.0 | 0.00 | 0.00 | 0.00 | 42 | 1014.6 |
| 20260903173334 | 95 | 130 | 1.0 | 8.0 | 0.00 | 0.00 | 0.00 | 43 | 1014.5 |
| 20260903172830 | 95 | 189 | 2.0 | 6.0 | 0.00 | 0.00 | 0.00 | 44 | 1014.8 |
| 20260903172324 | 95 | 151 | 2.0 | 7.0 | 0.00 | 0.00 | 0.00 | 43 | 1014.7 |
| 20260903171820 | 94 | 221 | 5.0 | 8.0 | 0.00 | 0.00 | 0.00 | 44 | 1014.7 |
| 20260903171315 | 93 | 277 | 1.0 | 9.0 | 0.00 | 0.00 | 0.00 | 46 | 1015.0 |
| 20260903170814 | 93 | 43 | 1.0 | 6.0 | 0.00 | 0.00 | 0.00 | 46 | 1015.0 |
| 20260903170309 | 94 | 185 | 7.0 | 9.0 | 0.00 | 0.00 | 0.00 | 44 | 1015.1 |
| 20260903165807 | 94 | 300 | 2.0 | 6.0 | 0.00 | 0.00 | 0.00 | 45 | 1014.9 |
| 20260903165305 | 93 | 10 | 1.0 | 5.0 | 0.00 | 0.00 | 0.00 | 46 | 1015.1 |
| 20260903164802 | 93 | 199 | 2.0 | 4.0 | 0.00 | 0.00 | 0.00 | 45 | 1015.2 |
| 20260903164258 | 93 | 242 | 4.0 | 6.0 | 0.00 | 0.00 | 0.00 | 46 | 1014.9 |
| 20260903163757 | 92 | 353 | 1.0 | 5.0 | 0.00 | 0.00 | 0.00 | 48 | 1015.0 |
| 20260903163254 | 91 | 297 | 1.0 | 4.0 | 0.00 | 0.00 | 0.00 | 49 | 1014.9 |
| 20260903162750 | 92 | 210 | 4.0 | 6.0 | 0.00 | 0.00 | 0.00 | 48 | 1014.9 |
| 20260903162246 | 91 | 255 | 0.0 | 8.0 | 0.00 | 0.00 | 0.00 | 50 | 1014.9 |
| 20260903161741 | 91 | 295 | 2.0 | 4.0 | 0.00 | 0.00 | 0.00 | 50 | 1015.2 |
| 20260903161237 | 91 | 127 | 2.0 | 5.0 | 0.00 | 0.00 | 0.00 | 49 | 1015.2 |
| 20260903160732 | 90 | 179 | 5.0 | 5.0 | 0.00 | 0.00 | 0.00 | 50 | 1015.3 |
| 20260903160231 | 89 | 213 | 4.0 | 6.0 | 0.00 | 0.00 | 0.00 | 51 | 1015.3 |
| 20260903155730 | 89 | 233 | 3.0 | 7.0 | 0.00 | 0.00 | 0.00 | 51 | 1015.2 |
| 20260903155225 | 88 | 5 | 1.0 | 6.0 | 0.00 | 0.00 | 0.00 | 53 | 1015.2 |
| 20260903154720 | 88 | 200 | 7.0 | 9.0 | 0.00 | 0.00 | 0.00 | 53 | 1015.4 |
| 20260903154216 | 89 | 210 | 5.0 | 8.0 | 0.00 | 0.00 | 0.00 | 51 | 1015.3 |
| 20260903153712 | 89 | 196 | 1.0 | 4.0 | 0.00 | 0.00 | 0.00 | 53 | 1015.2 |
| 20260903153208 | 88 | 342 | 2.0 | 3.0 | 0.00 | 0.00 | 0.00 | 53 | 1015.2 |
| 20260903152704 | 87 | 91 | 3.0 | 6.0 | 0.00 | 0.00 | 0.00 | 55 | 1015.2 |
| 20260903152200 | 87 | 224 | 0.0 | 5.0 | 0.00 | 0.00 | 0.00 | 56 | 1015.3 |
| 20260903151659 | 86 | 171 | 4.0 | 6.0 | 0.00 | 0.00 | 0.00 | 57 | 1015.5 |
| 20260903151155 | 86 | 135 | 1.0 | 7.0 | 0.00 | 0.00 | 0.00 | 57 | 1015.4 |
| 20260903150654 | 86 | 255 | 2.0 | 6.0 | 0.00 | 0.00 | 0.00 | 58 | 1015.3 |
| 20260903150150 | 85 | 212 | 4.0 | 5.0 | 0.00 | 0.00 | 0.00 | 58 | 1015.4 |
| 20260903145649 | 85 | 230 | 2.0 | 11.0 | 0.00 | 0.00 | 0.00 | 59 | 1015.3 |
| 20260903145145 | 85 | 341 | 2.0 | 6.0 | 0.00 | 0.00 | 0.00 | 59 | 1015.3 |
| 20260903144643 | 85 | 192 | 7.0 | 8.0 | 0.00 | 0.00 | 0.00 | 59 | 1015.5 |
| 20260903144139 | 85 | 26 | 2.0 | 6.0 | 0.00 | 0.00 | 0.00 | 59 | 1015.2 |
| 20260903143636 | 84 | 224 | 2.0 | 7.0 | 0.00 | 0.00 | 0.00 | 60 | 1015.4 |
| 20260903143131 | 83 | 257 | 4.0 | 6.0 | 0.00 | 0.00 | 0.00 | 61 | 1015.4 |
| 20260903142626 | 82 | 66 | 0.0 | 5.0 | 0.00 | 0.00 | 0.00 | 63 | 1015.4 |
| 20260903142123 | 82 | 35 | 1.0 | 8.0 | 0.00 | 0.00 | 0.00 | 64 | 1015.5 |
| 20260903141619 | 82 | 221 | 3.0 | 6.0 | 0.00 | 0.00 | 0.00 | 64 | 1015.4 |
| 20260903141113 | 82 | 257 | 0.0 | 9.0 | 0.00 | 0.00 | 0.00 | 65 | 1015.5 |
| 20260903140610 | 82 | 150 | 2.0 | 5.0 | 0.00 | 0.00 | 0.00 | 64 | 1015.5 |
| 20260903140104 | 82 | 187 | 5.0 | 5.0 | 0.00 | 0.00 | 0.00 | 64 | 1015.7 |
| 20260903135601 | 81 | 80 | 0.0 | 5.0 | 0.00 | 0.00 | 0.00 | 65 | 1015.4 |
| 20260903135100 | 81 | 210 | 1.0 | 5.0 | 0.00 | 0.00 | 0.00 | 65 | 1015.4 |
| 20260903134559 | 81 | 112 | 3.0 | 4.0 | 0.00 | 0.00 | 0.00 | 66 | 1015.5 |
| 20260903134055 | 80 | 351 | 0.0 | 8.0 | 0.00 | 0.00 | 0.00 | 66 | 1015.5 |
| 20260903133553 | 80 | 326 | 2.0 | 5.0 | 0.00 | 0.00 | 0.00 | 66 | 1015.4 |
| 20260903133049 | 80 | 110 | 3.0 | 4.0 | 0.00 | 0.00 | 0.00 | 66 | 1015.5 |
| 20260903132543 | 79 | 46 | 2.0 | 2.0 | 0.00 | 0.00 | 0.00 | 68 | 1015.5 |
| 20260903132038 | 78 | 240 | 3.0 | 4.0 | 0.00 | 0.00 | 0.00 | 69 | 1015.6 |
| 20260903131538 | 78 | 298 | 2.0 | 2.0 | 0.00 | 0.00 | 0.00 | 70 | 1015.4 |
| 20260903131037 | 77 | 39 | 1.0 | 3.0 | 0.00 | 0.00 | 0.00 | 70 | 1015.5 |
| 20260903130532 | 77 | 8 | 1.0 | 2.0 | 0.00 | 0.00 | 0.00 | 70 | 1015.5 |
| 20260903130033 | 77 | 187 | 1.0 | 4.0 | 0.00 | 0.00 | 0.00 | 70 | 1015.4 |
| 20260903125531 | 77 | 113 | 1.0 | 2.0 | 0.00 | 0.00 | 0.00 | 70 | 1015.4 |
| 20260903125026 | 77 | 309 | 0.0 | 2.0 | 0.00 | 0.00 | 0.00 | 71 | 1015.4 |
| 20260903124521 | 76 | 22 | 0.0 | 2.0 | 0.00 | 0.00 | 0.00 | 71 | 1015.4 |
| 20260903124021 | 76 | 244 | 1.0 | 3.0 | 0.00 | 0.00 | 0.00 | 71 | 1015.3 |
| 20260903123515 | 76 | 284 | 0.0 | 3.0 | 0.00 | 0.00 | 0.00 | 71 | 1015.4 |
| 20260903123014 | 76 | 195 | 2.0 | 4.0 | 0.00 | 0.00 | 0.00 | 72 | 1015.4 |
| 20260903122514 | 76 | 29 | 0.0 | 2.0 | 0.00 | 0.00 | 0.00 | 72 | 1015.3 |
| 20260903122013 | 76 | 0 | 1.0 | 2.0 | 0.00 | 0.00 | 0.00 | 72 | 1015.2 |
| 20260903121508 | 75 | 15 | 0.0 | 2.0 | 0.00 | 0.00 | 0.00 | 72 | 1015.2 |
| 20260903121004 | 75 | 348 | 0.0 | 4.0 | 0.00 | 0.00 | 0.00 | 72 | 1015.1 |
| 20260903120503 | 75 | 15 | 2.0 | 2.0 | 0.00 | 0.00 | 0.00 | 72 | 1015.1 |
| 20260903120003 | 75 | 2 | 1.0 | 2.0 | 0.00 | 0.00 | 0.00 | 71 | 1014.8 |
| 20260903115502 | 76 | 242 | 2.0 | 2.0 | 0.00 | 0.00 | 0.00 | 71 | 1014.8 |
| 20260903115001 | 76 | 357 | 0.0 | 2.0 | 0.00 | 0.00 | 0.00 | 71 | 1015.0 |
| 20260903114457 | 76 | 193 | 0.0 | 3.0 | 0.00 | 0.00 | 0.00 | 71 | 1014.8 |
| 20260903113953 | 75 | 225 | 0.0 | 3.0 | 0.00 | 0.00 | 0.00 | 71 | 1014.7 |
| 20260903113448 | 76 | 205 | 0.0 | 2.0 | 0.00 | 0.00 | 0.00 | 71 | 1014.9 |
| 20260903112944 | 76 | 107 | 0.0 | 2.0 | 0.00 | 0.00 | 0.00 | 71 | 1014.7 |
| 20260903112440 | 75 | 0 | 0.0 | 2.0 | 0.00 | 0.00 | 0.00 | 71 | 1014.9 |
| 20260903111939 | 75 | 316 | 1.0 | 1.0 | 0.00 | 0.00 | 0.00 | 71 | 1014.8 |
| 20260903111439 | 75 | 327 | 0.0 | 1.0 | 0.00 | 0.00 | 0.00 | 70 | 1014.8 |
| 20260903110935 | 76 | 297 | 0.0 | 2.0 | 0.00 | 0.00 | 0.00 | 70 | 1015.0 |
| 20260903110431 | 76 | 44 | 0.0 | 1.0 | 0.00 | 0.00 | 0.00 | 70 | 1015.1 |
| 20260903105925 | 76 | 269 | 0.0 | 1.0 | 0.00 | 0.00 | 0.00 | 69 | 1014.9 |
| 20260903105421 | 76 | 309 | 0.0 | 1.0 | 0.00 | 0.00 | 0.00 | 69 | 1014.6 |
| 20260903104920 | 76 | 247 | 1.0 | 1.0 | 0.00 | 0.00 | 0.00 | 69 | 1014.8 |
| 20260903104419 | 76 | 339 | 0.0 | 2.0 | 0.00 | 0.00 | 0.00 | 68 | 1015.1 |